Location: Newark
(38.6500°N, 6.7333°W)
Time: 05:26:12
(UTC+00:00)

Hubble Space Telescope - Visible Passes

Search period start: 23 March 2019 00:00
Search period end: 02 April 2019 00:00
Orbit: 537 x 540 km, 28.5° (Epoch: 22 March)

Date Brightness Start Highest point End Pass type
(mag) Time Alt. Az. Time Alt. Az. Time Alt. Az.
24 Mar 3.0 20:16:19 10° SSW 20:17:23 12° S 20:17:23 12° S visible
25 Mar 2.7 20:05:20 10° SSW 20:07:44 15° SSE 20:07:45 15° SSE visible
26 Mar 2.6 19:54:29 10° SSW 19:57:08 17° S 19:58:03 16° SSE visible
27 Mar 2.6 19:43:43 10° SW 19:46:33 18° S 19:48:18 14° SE visible
28 Mar 2.6 19:33:01 10° SW 19:35:58 19° S 19:38:30 12° SE visible
28 Mar 3.6 21:13:43 10° SW 21:13:51 10° SW 21:13:51 10° SW visible
29 Mar 2.6 19:22:22 10° SW 19:25:23 20° S 19:28:23 10° SE visible
29 Mar 3.3 21:03:19 10° SW 21:04:00 12° SW 21:04:00 12° SW visible
30 Mar 2.6 19:11:45 10° SW 19:14:48 20° S 19:17:50 10° SE visible
30 Mar 3.2 20:52:59 10° SW 20:54:09 13° SSW 20:54:09 13° SSW visible
31 Mar 3.1 20:42:46 10° SW 20:44:18 13° SSW 20:44:18 13° SSW visible
01 Apr 3.2 20:32:49 10° SW 20:34:08 11° SSW 20:34:27 11° SSW visible
